HAIYANG-1B              
1 31113U 07010A   19265.83979784 -.00000031  00000-0  46080-5 0  9993
2 31113  98.4447 311.8883 0012649 287.2790  72.7009 14.30230087649761
CZ-2C R/B               
1 31114U 07010B   19265.49972512 -.00000022  00000-0  88210-5 0  9999
2 31114  98.2956 130.9043 0059242 331.7939  28.0034 14.19298711644866